Theta_e
317 318 318 318 319 320 319 320 320 320 319 319 320 320 320 320 321 320 320 321 319 319 318 318 318 319 314 313 312 312 310 309 307 291 291 291 290 290 291 291 291 290 290
312 313 315 315 316 317 318 318 318 319 319 320 320 319 320 320 321 319 319 317 316 315 314 312 312 309 310 310 308 307 305 302 300 293 289 288 288 289 290 288 288 290 289
307 309 308 310 312 314 315 315 316 317 318 317 318 317 317 316 315 313 313 312 312 312 310 310 309 308 305 303 303 302 299 296 295 291 287 288 287 288 287 287 287 287 288
303 304 304 304 305 305 304 307 308 309 308 307 306 306 306 306 306 304 306 307 306 305 303 303 302 302 303 301 298 297 293 291 292 289 287 286 287 285 286 286 285 287 288
297 298 297 297 298 299 301 302 302 301 302 302 302 302 301 299 296 299 300 302 302 300 295 294 293 291 292 295 295 292 291 289 287 287 286 286 287 285 286 286 286 288 286
297 295 295 296 295 294 295 295 295 296 297 297 296 295 295 293 296 296 298 299 297 294 291 290 292 290 292 293 293 293 293 290 286 287 286 288 286 286 285 286 286 284 285
295 294 293 293 291 291 291 291 291 291 291 292 294 293 292 293 295 294 293 295 293 293 290 289 289 289 289 290 292 292 290 292 291 289 287 285 285 287 287 286 284 284 284
292 291 290 290 290 290 290 290 291 292 291 290 290 290 290 291 293 292 291 290 290 289 290 290 290 289 289 288 288 287 286 287 287 286 288 288 289 288 288 287 286 284 283
290 290 289 290 289 289 288 290 290 289 288 287 287 288 288 288 292 292 290 288 288 287 288 289 289 288 290 290 287 286 286 286 289 290 289 289 288 288 286 284 282 281 281
290 290 289 289 289 289 288 288 286 287 286 287 286 287 286 287 291 291 289 287 286 285 286 286 286 287 290 289 287 286 285 284 285 284 285 285 286 286 287 284 282 280 279
289 288 288 288 289 288 287 287 287 286 286 286 286 286 287 287 289 291 290 287 286 285 285 285 286 290 290 289 287 285 284 284 282 281 281 282 282 283 283 282 282 281 279
288 288 288 287 287 287 287 286 286 286 285 285 285 285 286 286 288 290 290 289 288 286 284 284 286 289 290 289 286 289 288 283 284 284 283 280 279 280 280 280 279 279 280
288 288 287 287 287 287 287 286 287 286 287 286 286 285 284 285 286 289 289 288 287 285 285 287 288 287 286 285 285 284 282 284 285 283 282 282 280 280 279 278 279 276 275
288 288 287 287 286 286 287 287 287 287 286 286 285 284 284 284 285 286 285 285 284 282 283 282 283 283 282 281 281 281 280 279 280 280 280 281 280 279 279 278 276 275 274
288 287 287 287 286 285 285 285 285 285 288 286 286 285 284 283 284 286 284 282 283 280 277 281 281 281 281 281 281 281 281 279 277 276 277 276 277 277 277 276 274 273 272
287 287 287 286 285 284 284 284 287 287 287 286 286 285 282 286 288 288 287 286 286 285 280 281 281 281 280 280 280 279 280 277 275 274 274 273 274 274 274 274 273 272 271
288 287 286 285 284 283 283 282 281 284 287 286 286 286 285 286 287 288 288 288 287 284 279 278 278 279 279 278 277 276 274 273 271 273 272 272 273 273 272 271 271 271 270
287 286 286 285 284 283 283 281 279 277 276 278 284 285 284 285 285 286 285 280 275 274 274 274 272 272 270 270 269 269 269 270 270 269 270 270 270 270 269 269 269 268 269
284 284 283 283 282 281 279 277 275 275 274 273 273 275 277 281 280 279 278 271 268 266 265 265 265 265 265 265 265 265 265 266 265 265 266 265 266 266 267 267 267 266 267
281 279 280 278 277 276 275 274 273 271 270 270 269 267 264 265 263 262 262 263 263 261 261 262 261 261 261 261 261 261 262 262 262 262 262 263 264 264 265 265 266 265 266
279 276 276 276 276 275 274 273 271 270 268 265 264 263 267 265 261 260 259 259 260 259 259 260 259 259 258 258 258 259 259 260 260 260 260 261 261 261 262 263 263 263 264
277 275 276 274 272 272 270 270 269 267 266 266 263 270 269 260 259 258 257 257 256 256 256 257 258 258 258 258 258 258 258 258 258 258 259 258 259 260 260 260 260 261 261
275 272 271 270 269 267 267 266 265 264 262 261 260 258 257 257 256 256 256 255 254 254 253 255 257 254 254 254 255 256 257 258 258 256 256 257 258 259 259 259 259 259 260
273 271 269 267 267 266 265 263 261 260 260 258 258 257 257 255 255 255 254 253 253 253 253 252 253 254 254 254 255 254 254 254 254 255 255 256 257 258 258 257 258 257 258
271 269 268 266 265 263 262 261 261 260 260 259 258 257 256 256 254 254 253 252 251 253 253 253 252 252 252 251 253 254 253 256 256 256 255 256 257 258 257 256 256 257 256
269 267 265 264 263 262 262 262 261 261 260 259 259 258 257 257 256 255 254 253 254 254 253 253 253 251 252 253 253 255 256 261 261 259 260 261 259 258 258 256 255 255 256
Wind_Speed
11 12 11 10 10 9 9 9 9 7 8 8 9 9 9 8 8 9 9 9 9 8 6 8 10 7 3 3 3 3 3 3 5 2 2 2 2 4 6 3 4 3 3
8 9 10 8 8 8 8 6 6 8 6 8 7 7 7 8 8 8 8 6 6 5 4 2 5 2 4 3 3 4 3 3 3 3 1 1 2 4 5 3 3 3 3
7 7 6 7 7 7 6 5 5 5 5 5 5 6 5 3 3 2 5 4 4 4 3 5 4 3 3 3 3 3 2 3 3 3 3 2 3 2 2 2 1 3 5
6 7 7 7 6 6 6 6 5 5 5 5 5 5 5 5 4 4 4 4 3 4 3 4 5 4 4 1 2 2 3 4 3 5 3 2 2 2 2 2 3 5 7
7 7 6 6 7 7 7 6 6 6 5 5 5 5 5 6 3 5 5 4 4 6 6 6 5 3 3 5 3 4 5 4 4 4 2 2 2 2 3 2 3 3 3
6 6 7 8 7 7 7 6 6 6 5 5 5 5 6 4 7 7 5 5 5 6 6 4 3 5 7 11 13 10 7 7 4 3 2 2 2 2 3 2 2 1 4
8 7 8 9 9 8 8 7 7 6 5 6 5 5 5 4 7 7 6 4 5 4 5 5 4 3 5 7 11 11 8 6 6 6 6 5 5 6 5 4 5 5 6
8 8 8 8 8 7 7 7 7 5 6 5 5 5 5 4 8 9 9 7 7 6 5 5 5 5 5 6 6 6 5 5 4 3 2 2 1 3 3 0 1 2 3
10 10 9 9 9 8 9 8 6 7 5 3 3 5 7 6 9 11 9 7 7 7 5 5 4 6 7 7 5 5 5 4 7 8 6 4 1 1 3 2 1 1 2
11 10 9 9 10 9 8 7 3 4 6 5 5 5 5 7 10 10 8 5 7 5 5 5 9 5 9 7 5 4 5 3 3 3 4 4 6 4 4 2 2 3 2
10 10 9 8 10 10 8 6 7 7 7 5 8 6 7 6 9 12 11 5 4 5 5 4 3 9 10 10 8 4 4 4 5 5 4 4 4 4 3 2 3 4 3
11 11 10 9 8 8 11 7 8 8 8 5 8 7 6 6 8 12 14 10 8 6 5 3 3 8 9 9 5 6 9 6 1 2 3 2 2 3 3 4 4 5 5
13 13 11 11 10 10 11 10 9 6 7 6 6 6 5 4 4 12 14 14 13 8 5 9 13 15 16 12 17 16 10 5 3 3 4 4 1 2 3 4 4 4 6
13 13 12 11 10 8 6 7 8 7 7 7 8 7 5 4 3 3 4 6 11 9 11 9 13 14 15 10 6 7 5 5 4 4 4 4 2 3 4 3 3 4 3
14 11 11 10 10 8 6 5 5 2 6 9 7 8 9 6 4 6 7 6 6 8 7 5 6 6 5 4 4 3 3 2 4 3 3 4 4 4 5 3 2 3 3
15 12 10 10 9 9 10 10 13 13 16 16 15 10 4 10 13 12 14 16 15 13 4 5 4 4 5 4 3 3 3 6 4 4 3 3 3 3 4 4 2 3 7
17 15 11 11 10 11 11 11 12 12 18 18 18 16 13 14 13 14 15 15 13 10 6 5 5 5 4 4 5 5 5 5 3 4 4 4 3 3 4 5 5 5 6
15 18 13 11 11 10 10 10 9 10 11 7 12 14 15 15 15 15 17 12 6 7 5 6 5 5 5 4 4 3 3 3 4 4 5 5 4 4 5 5 6 6 7
14 12 11 10 9 10 9 9 7 9 10 9 6 8 8 16 16 14 11 5 6 5 4 5 4 4 3 2 2 2 3 3 3 3 4 4 5 4 5 5 5 6 7
11 17 13 11 10 10 9 10 8 9 9 7 5 4 2 3 4 3 4 4 6 5 4 5 3 3 3 3 2 3 2 3 3 3 4 4 5 5 5 5 5 6 6
11 11 15 10 10 10 9 9 9 10 8 6 3 3 7 6 5 4 4 3 4 4 4 4 3 2 2 2 2 2 2 3 3 3 3 4 4 5 5 5 5 5 6
11 11 11 11 9 9 8 9 10 10 9 8 4 7 14 5 4 4 4 4 3 3 2 3 3 2 1 1 1 1 1 2 3 3 4 4 4 4 4 4 4 5 5
11 11 10 9 9 11 10 9 9 9 7 6 5 5 3 4 4 4 4 3 3 3 2 2 2 2 2 2 2 2 2 2 3 2 4 4 4 4 3 4 4 4 4
12 12 12 10 9 9 9 10 9 10 9 7 5 4 5 4 4 4 3 3 2 2 2 3 2 2 2 2 2 2 3 3 3 4 5 4 4 4 4 3 4 5 6
11 12 12 11 11 11 11 9 9 8 7 7 6 5 4 3 3 3 3 2 1 2 2 2 2 4 4 5 5 5 5 7 6 6 3 4 5 5 3 3 3 3 3
11 10 10 9 10 10 11 10 9 8 7 7 6 5 5 4 3 3 2 3 2 3 4 3 3 4 5 5 5 7 7 9 8 8 5 3 3 3 3 4 5 3 5
Wind_Direction
181 187 188 190 189 185 190 200 201 194 186 194 199 207 213 216 213 210 218 224 218 229 219 228 240 251 224 236 212 221 231 204 251 89 75 78 108 148 154 151 155 224 222
172 165 181 175 173 182 193 184 177 199 190 201 202 204 206 213 217 209 223 212 222 211 227 247 258 241 236 230 208 213 194 153 143 151 113 102 102 142 171 159 187 219 253
161 158 154 156 157 165 164 158 164 174 177 184 193 199 209 204 203 144 152 162 189 179 174 219 223 217 229 210 204 177 152 124 102 126 133 73 64 94 80 21 271 261 245
153 150 151 155 152 138 127 125 119 108 105 98 88 97 101 101 90 81 77 83 68 52 46 36 26 358 332 269 126 129 87 93 82 87 80 102 143 140 129 169 243 228 258
136 134 137 124 116 119 117 111 101 93 94 94 104 92 82 81 71 98 92 101 120 91 61 51 45 42 42 106 128 122 112 95 103 108 144 129 137 132 206 192 244 282 284
130 125 122 117 112 114 118 117 105 98 91 93 86 94 93 84 85 93 124 122 102 117 120 97 87 73 75 98 101 114 144 150 146 109 112 149 161 170 178 192 227 248 281
129 132 133 133 130 128 124 118 112 114 116 103 99 102 95 90 90 99 110 106 103 106 110 119 92 84 97 106 107 111 110 133 135 159 154 175 168 195 172 190 200 216 237
138 138 136 133 125 123 118 118 119 114 109 104 103 115 105 87 102 107 107 107 97 87 101 122 123 119 110 122 118 101 75 63 53 60 100 137 344 164 205 239 261 298 321
149 149 149 142 137 135 129 130 116 115 111 106 117 135 113 89 95 104 103 96 100 94 80 66 86 80 87 98 88 100 90 48 39 45 58 56 10 224 158 126 298 299 283
161 155 150 143 137 136 130 120 93 93 107 103 101 82 82 93 87 92 90 89 91 93 78 74 74 101 103 86 99 106 92 43 26 25 11 12 16 354 178 200 189 243 252
143 142 140 140 138 132 120 118 118 118 108 115 104 86 78 74 71 76 86 88 116 116 94 81 71 108 109 102 103 110 134 123 64 62 21 5 357 345 334 322 258 240 240
142 141 142 134 129 127 127 123 128 125 128 124 113 99 78 72 86 83 90 94 103 99 95 99 102 100 91 82 70 79 100 100 58 17 12 12 337 330 344 334 312 294 273
144 142 137 132 134 137 138 137 127 142 139 126 116 106 96 72 67 93 102 100 95 95 96 95 79 67 64 57 55 46 34 15 1 345 337 327 243 285 300 289 286 296 286
144 140 136 133 132 127 126 132 143 146 137 136 129 120 117 110 118 119 103 102 89 81 81 73 79 80 78 79 66 52 43 25 9 348 345 338 338 324 326 336 301 321 300
140 140 134 130 131 122 101 119 134 122 151 147 133 139 139 139 169 148 134 116 108 117 116 104 98 94 85 89 81 95 66 26 30 9 358 341 334 332 326 336 309 322 302
142 146 148 138 138 130 122 109 82 102 108 112 121 128 109 125 128 132 129 123 124 128 95 106 95 85 76 58 39 18 28 35 26 8 349 344 336 331 323 327 303 305 312
148 151 143 146 146 144 138 128 122 96 105 106 111 114 113 121 119 130 127 130 126 117 104 95 96 91 74 55 42 42 34 17 352 4 352 342 340 333 337 331 330 323 319
149 150 151 152 149 144 140 139 139 147 129 113 102 113 114 119 123 135 129 107 82 60 88 94 79 66 67 66 45 35 14 5 11 358 359 358 355 343 339 331 328 321 321
152 148 144 140 141 137 136 133 146 139 122 117 101 73 91 103 92 85 87 95 116 96 90 93 100 95 88 87 63 38 30 17 6 1 1 356 351 351 336 328 328 317 317
138 135 140 138 137 140 139 146 147 120 112 123 128 118 98 39 63 55 66 93 101 108 114 110 100 91 86 67 42 35 42 33 16 16 357 351 349 342 342 335 339 329 319
135 135 136 132 144 140 142 148 129 111 114 108 123 171 154 129 133 118 116 96 106 102 99 95 99 91 81 69 52 38 36 16 8 351 341 342 350 340 335 334 337 324 315
135 139 141 142 128 132 139 132 115 116 125 126 110 109 109 88 114 120 107 107 118 113 112 120 128 133 131 98 71 51 12 333 325 336 330 320 319 321 328 336 330 321 318
132 132 126 117 115 129 117 107 112 116 116 108 109 104 106 120 120 124 131 134 134 138 147 154 139 145 183 186 187 198 238 269 281 285 279 289 303 314 326 319 314 308 308
133 132 126 123 134 122 117 115 108 108 119 124 125 132 141 145 146 142 140 137 141 148 160 166 188 206 273 285 263 226 244 262 249 249 245 263 286 300 304 300 302 304 305
130 131 130 135 132 122 116 111 113 114 119 129 136 138 134 126 132 161 173 182 178 160 198 210 220 233 247 262 275 286 276 279 265 250 237 238 254 268 268 272 283 298 283
120 121 118 117 114 117 121 125 123 126 136 144 145 147 154 158 170 173 179 197 199 217 236 227 232 243 264 266 274 282 275 270 264 265 252 244 246 255 260 259 275 274 282